Regional Weather Roundup
Issued by NWS

Home | Current Version | Previous Version | Graphics & Text | Print | Product List | Glossary On
Versions: 1 2 3 4 5 6 7 8 9 10 11 12 13 14 15 16 17 18 19 20 21 22 23 24 25 26 27 28 29 30 31 32 33 34 35 36 37 38 39 40 41 42 43 44 45 46 47 48 49 50
000
ASUS43 KDTX 021701
RWRMI
MICHIGAN HOURLY REGIONAL WEATHER ROUNDUP
NATIONAL WEATHER SERVICE DETROIT/PONTIAC MI
100 PM EDT TUE JUN 02 2015

NOTE: "FAIR" INDICATES FEW OR NO CLOUDS BELOW 12,000 FEET WITH NO
SIGNIFICANT WEATHER AND/OR OBSTRUCTION TO VISIBILITY.

MIZ047>049-052>055-059>063-066>070-074>076-081>083-021800-
SOUTHEAST LOWER MICHIGAN

CITY           SKY/WX    TMP DP  RH WIND       PRES   REMARKS
ADRIAN         PTSUNNY   65  50  58 E10       30.21S
ALMA           SUNNY     65  44  47 E5        30.22F
ANN ARBOR      PTSUNNY   68  49  50 E6        30.20F
BAD AXE        SUNNY     65  37  34 CALM      30.22F
CARO           SUNNY     67  46  46 N5        30.20F
DETROIT CITY   SUNNY     67  45  45 VRB7      30.21S
DETROIT        MOSUNNY   68  43  40 E8G17     30.21S
FLINT          SUNNY     69  44  40 NE7       30.21F
GROSSE ILE     SUNNY     66  52  59 NE8       30.20S
HILLSDALE      PTSUNNY   66  49  53 E5        30.20S
HOWELL         MOSUNNY   65  45  47 E7        30.20F

CITY           SKY/WX    TMP DP  RH WIND       PRES   REMARKS
JACKSON        MOSUNNY   67  51  56 NE8       30.20F
LAMBERTVILLE   SUNNY     64  50  59 NE7       30.21S
LANSING        SUNNY     66  48  52 NE9       30.21F
LAPEER         FAIR      66  39  36 NE5       30.22R
MASON          MOSUNNY   63  49  60 NE6       30.22S
MONROE         MOSUNNY   66  52  59 E12       30.19F
MT. CLEMENS    MOSUNNY   67  49  52 E9        30.19S
PONTIAC        MOSUNNY   67  41  38 NE8       30.20F
PORT HOPE        N/A     54  45  71 N3        30.22F
PORT HURON     SUNNY     64  43  45 N9        30.22S
TRI CITIES     SUNNY     66  41  40 MISG      30.22F
MIDLAND        FAIR      67  41  38 SE6       30.20F
TROY           SUNNY     68  39  34 E6        30.22S
SAGINAW HB     SUNNY     66  43  42 CALM      30.21F
$$
MIZ043>046-050>051-056>058-064>065-071>073-077>080-021800-
SOUTHWEST LOWER MICHIGAN

CITY           SKY/WX    TMP DP  RH WIND       PRES   REMARKS
BATTLE CREEK   SUNNY     66  46  48 SE8       30.20F
BENTON HARBOR  SUNNY     61  48  62 NW9       30.19F
BIG RAPIDS     SUNNY     64  23  20 CALM      30.19F
COLDWATER      MOSUNNY   65  49  54 E9        30.19F
FREMONT        FAIR      66  29  25 E3        30.19F
HOLLAND        SUNNY     67  43  41 NE6       30.20F
GRAND RAPIDS   MOSUNNY   66  46  48 E6        30.20F
IONIA          FAIR      65  46  50 SE3       30.21F
KALAMAZOO      SUNNY     67  47  48 NE7       30.20F
LUDINGTON      SUNNY     64  46  52 SW8       30.19F
MARSHALL       SUNNY     66  48  50 SE3       30.19F
MOUNT PLEASANT SUNNY     66  43  43 SE6       30.21F
MUSKEGON       MOSUNNY   66  45  46 SW9       30.19F
SOUTH HAVEN    SUNNY     63  45  51 NW9       30.19F
$$
MIZ016>042-021800-
NORTHERN LOWER MICHIGAN

CITY           SKY/WX    TMP DP  RH WIND       PRES   REMARKS
ALPENA         SUNNY     68  35  29 SE12      30.22S
BEAVER ISLAND  SUNNY     65  29  25 W10       30.20F
BELLAIRE       MOSUNNY   67  30  24 CALM      30.20F
CADILLAC       MOSUNNY   66  30  26 SE8       30.19F
CHARLEVOIX     MOSUNNY   64  36  35 NW7       30.23F
FRANKFORT      SUNNY     64  21  19 W8        30.20S
GAYLORD        SUNNY     66  30  26 VRB3      30.20
GRAYLING       SUNNY     67  32  27 CALM      30.21S
HARBOR SPRINGS SUNNY     66  35  31 SW5       30.20F
HOUGHTON LAKE  SUNNY     65  31  28 S6        30.21F
MANISTEE       SUNNY     64  37  36 NW9       30.20S
OSCODA         SUNNY     64  36  35 E9        30.22F
PELLSTON       SUNNY     67  31  26 CALM      30.20F
ROGERS CITY    SUNNY     62  35  36 NE10      30.23S
TRAVERSE CITY  PTSUNNY   67  36  31 NE8       30.19F
$$
MIZ007>008-015-021800-
EASTERN UPPER MICHIGAN

CITY           SKY/WX    TMP DP  RH WIND       PRES   REMARKS
KINROSS        SUNNY     68  30  24 SE5       30.20F
MACKINAC ISLAN SUNNY     64  37  37 W3        30.21S
NEWBERRY       SUNNY     64  38  38 S9G16     30.19S
S. S. MARIE    SUNNY     68  36  30 CALM      30.19F
$$
MIZ004>006-011>014-085-021800-
CENTRAL UPPER MICHIGAN

CITY           SKY/WX    TMP DP  RH WIND       PRES   REMARKS
MANISTIQUE     MOSUNNY   57  38  48 S9        30.20S
ESCANABA       SUNNY     57  43  58 S9        30.16F
MENOMINEE      MOSUNNY   61  43  51 SE10      30.17F
SAWYER-GWINN   SUNNY     66  30  26 SW15G22   30.14F
$$
MIZ001>003-009>011-084-021800-
WESTERN UPPER MICHIGAN

CITY           SKY/WX    TMP DP  RH WIND       PRES   REMARKS
IRON MOUNTAIN  MOSUNNY   68  32  26 S16G23    30.13F
HOUGHTON       MOSUNNY   67  37  33 S8        30.08F
COPPER HARBOR    N/A     66  25  21 SW8       30.09F
IRONWOOD       PTSUNNY   66  43  42 S14       30.05F
$$

ABBREVIATIONS USED IN REMARKS
   TC - TEMPERATURE IN CELSIUS
  WCI - WIND CHILL INDEX
   HX - HEAT INDEX
  VSB - VISIBILITY



USA.gov is the U.S. government's official web portal to all federal, state and local government web resources and services.